Miscellaneous Local Product
Issued by NWS Hastings, NE

Home | Current Version | Previous Version | Graphics & Text | Print | Product List | Glossary On
Versions: 1 2 3 4 5 6 7 8 9 10 11 12 13 14 15 16 17 18 19 20 21 22 23 24 25 26 27 28 29 30 31 32 33 34 35 36 37 38 39 40 41 42 43 44 45 46 47 48 49 50
000
AXUS43 KGID 202202
MISGRI

GID CWA HOURLY WEATHER ROUNDUP
NATIONAL WEATHER SERVICE HASTINGS NE
400 PM CST MON FEB 20 2017

NOTE: "FAIR" INDICATES FEW OR NO CLOUDS BELOW 12,000 FEET WITH NO
SIGNIFICANT WEATHER AND/OR OBSTRUCTIONS TO VISIBILITY.

...SOUTH CENTRAL NEBRASKA...

CITY           SKY/WX    TMP DP  RH WIND       PRES   REMARKS
GRAND ISLAND   SUNNY     61  41  47 NW24G31   29.83R
HASTINGS       SUNNY     61  40  45 NW26      29.85R
KEARNEY        SUNNY     63  36  36 N22G31    29.86R
ORD            SUNNY     62  33  33 N22       29.83R
YORK           SUNNY     64  43  45 N13G18    29.80R
AURORA         MOSUNNY   64  42  44 NW15G24   29.82R
LEXINGTON      SUNNY     62  31  31 N16       29.88R
HOLDREGE       SUNNY     62  32  33 N14G23    29.87R
HEBRON         SUNNY     66  41  40 N14G21    29.80R

...NEBRASKA PANHANDLE...

CITY           SKY/WX    TMP DP  RH WIND       PRES   REMARKS
CHADRON        SUNNY     63  15  15 W16       29.86F
ALLIANCE       SUNNY     61  15  16 W14G29    29.90S
SCOTTSBLUFF    SUNNY     63  21  20 W21G33    29.92R
SIDNEY         SUNNY     62  19  19 NW18G30   29.95S

...WESTERN AND NORTH CENTRAL NEBRASKA...

CITY           SKY/WX    TMP DP  RH WIND       PRES   REMARKS
VALENTINE      SUNNY     61  24  24 NW14G21   29.84R
AINSWORTH      SUNNY     60  31  34 NW14G22   29.85R
ONEILL         SUNNY     60  37  43 NW21      29.83R
BROKEN BOW     SUNNY     62  33  33 N18G30    29.85R
IMPERIAL       SUNNY     62  18  18 NW21G28   29.94R
NORTH PLATTE   SUNNY     64  27  24 NW17G25   29.89R
MCCOOK         SUNNY     64  28  25 N20       29.90R

...EASTERN NEBRASKA...

CITY           SKY/WX    TMP DP  RH WIND       PRES   REMARKS
NORFOLK        MOSUNNY   59  41  51 NW20G28   29.79R
SO SIOUX CITY  CLOUDY    56  43  61 NW17      29.75S
TEKAMAH        PTSUNNY   56  45  66 NW14G24   29.77R
COLUMBUS       MOSUNNY   61  45  55 NW12      29.80R
ALBION         SUNNY     60  39  47 N22G35    29.82R
OMAHA EPPLEY   CLOUDY    60  55  83 S7        29.77R
OFFUTT AFB     PTSUNNY  117 N/A N/A S7        29.79R
MILLARD        CLOUDY    63  58  84 CALM      29.78R
LINCOLN        CLOUDY    64  47  53 NW20      29.80R
NEBRASKA CITY  CLOUDY    60  56  87 SW8       29.81R
BEATRICE       PTSUNNY   65  51  62 SW9       29.80R
FALLS CITY     CLOUDY    62  55  77 SW8       29.81R

...NORTHERN KANSAS...

CITY           SKY/WX    TMP DP  RH WIND       PRES   REMARKS
GOODLAND       SUNNY     63  16  16 NW24G31   29.96R
HILL CITY      MOSUNNY   67  35  30 N17G29    29.89R
NORTON         CLEAR     63  27  25 N18G26    29.88R
SMITH CENTER   MOSUNNY   64  37  36 NW23      29.85R
HAYS           SUNNY     66  38  35 N23G30    29.86R
RUSSELL        MOSUNNY   68  39  34 NW18      29.83R
CONCORDIA      SUNNY     68  43  40 NW10      29.79R
SALINA         MOSUNNY   72  36  26 NW13      29.81R
TOPEKA         CLOUDY    63  53  70 SW8       29.82R



USA.gov is the U.S. government's official web portal to all federal, state and local government web resources and services.